Location: Lake Runnemede Observatory
(43.4843°N, 72.3851°W)
Time: 03:59:41
(UTC-04:00)

Amateur Radio Satellites - All Passes

Search period start: 01 July 2016 03:29
Search period end: 02 July 2016 03:29
Location: Lake Runnemede Observatory, 43.4843°N, 72.3851°W

Satellite Date Start Highest point End Downlink Frequencies (MHz)
Time Altitude Azimuth
AIST 2 01 Jul 03:31:56 03:34:19 15° 110° (ESE) 03:36:45 435.215
BEESAT 01 Jul 03:38:09 03:41:13 17° 269° (W) 03:44:17 436.000
JAS-2 01 Jul 03:40:16 03:42:01 11° 307° (NW) 03:43:44 435.910
GONETS M04 01 Jul 03:40:56 03:46:38 19° 59° (ENE) 03:52:21
ITUPSAT 1 01 Jul 03:41:07 03:44:06 16° 269° (W) 03:47:05 437.325
KKS-1 01 Jul 03:41:22 03:45:47 78° 74° (ENE) 03:50:13 437.445
Cosmos 2499 01 Jul 03:43:25 03:46:54 13° 52° (NE) 03:50:19 435.465 / 435.565
MOZHAYETS 4 01 Jul 03:51:02 03:55:40 86° 79° (E) 04:00:21
CUBESAT XI-V 01 Jul 03:52:07 03:54:03 12° 60° (ENE) 03:55:59 437.345
PCSat 01 Jul 03:57:08 04:00:40 17° 322° (NW) 04:04:13 145.827
Oscar 19 01 Jul 04:01:33 04:04:32 16° 301° (WNW) 04:07:31 437.125/150
BEESAT 2 01 Jul 04:04:58 04:07:49 19° 318° (NW) 04:10:42 435.950
STARS 01 Jul 04:06:09 04:10:29 73° 74° (ENE) 04:14:51 437.465
AIST 1 01 Jul 04:09:00 04:13:17 87° 260° (W) 04:17:33
ITAMSAT 1 01 Jul 04:28:26 04:33:29 49° 290° (WNW) 04:38:29 435.822/435.867
AO-7 01 Jul 04:30:07 04:38:26 62° 104° (ESE) 04:46:40 29.400- 29.500
Gurwin Techsat 1B 01 Jul 04:40:05 04:43:23 17° 301° (WNW) 04:46:41 435.225
HORYU 2 01 Jul 04:57:06 05:00:39 23° 94° (E) 05:04:11 437.375
AIST 2 01 Jul 05:08:20 05:12:22 55° 307° (NW) 05:16:28 435.215
AO-85 01 Jul 05:09:28 05:13:49 39° 48° (NE) 05:17:48 145.980
KKS-1 01 Jul 05:22:18 05:22:54 10° 271° (W) 05:23:29 437.445
CUBESAT XI-V 01 Jul 05:26:03 05:30:45 83° 256° (WSW) 05:35:28 437.345
Cosmos 2499 01 Jul 05:33:40 05:42:20 58° 76° (ENE) 05:50:25 435.465 / 435.565
GONETS M04 01 Jul 05:36:10 05:44:57 83° 81° (E) 05:53:44
STARS 01 Jul 05:46:15 05:47:21 11° 271° (W) 05:48:28 437.465
CUTE-I 01 Jul 05:51:02 05:53:33 13° 88° (E) 05:56:04 437.470
DANDE 01 Jul 06:01:03 06:02:55 11° 78° (ENE) 06:04:43 436.750
PHONESAT 2.4 01 Jul 06:05:23 06:07:53 23° 159° (SSE) 06:10:24 2401.200-2431.200
NOAA 15 01 Jul 06:08:37 06:13:00 26° 95° (E) 06:17:21 137.62
STRAND 1 01 Jul 06:17:11 06:21:31 28° 65° (ENE) 06:25:53 437.568
LilacSat-2 01 Jul 06:17:18 06:20:05 19° 93° (E) 06:22:52 437.200
AO-7 01 Jul 06:23:29 06:30:45 34° 304° (WNW) 06:37:59 29.400- 29.500
BRITE-PL 01 Jul 06:23:41 06:27:27 32° 97° (E) 06:31:15 437.365/2234.400
HORYU 2 01 Jul 06:33:09 06:37:18 37° 291° (WNW) 06:41:25 437.375
GOMX 1 01 Jul 06:42:56 06:46:25 24° 95° (E) 06:50:00 467.674
CUSAT 1 01 Jul 06:48:40 06:55:49 47° 95° (E) 07:01:47 437.405
AO-85 01 Jul 06:50:27 06:54:01 24° 248° (WSW) 06:57:21 145.980
AIST 2 01 Jul 06:51:10 06:51:47 10° 328° (NNW) 06:52:24 435.215
Cubesat XI-IV 01 Jul 06:55:27 07:00:43 51° 100° (E) 07:05:56 437.490
NOAA 18 01 Jul 07:12:52 07:18:27 76° 104° (ESE) 07:24:00 137.9125
PRISM 01 Jul 07:15:09 07:17:17 14° 62° (ENE) 07:19:26 437.425
Cosmos 2499 01 Jul 07:27:31 07:34:55 33° 277° (W) 07:41:57 435.465 / 435.565
DOVE 4 01 Jul 07:28:23 07:32:25 34° 98° (E) 07:36:37 437.250
CUTE-I 01 Jul 07:28:50 07:34:15 82° 286° (WNW) 07:39:37 437.470
ISS 01 Jul 07:34:10 07:37:03 29° 138° (SE) 07:39:57 145.825
GONETS M04 01 Jul 07:34:38 07:40:40 21° 282° (WNW) 07:46:45
DANDE 01 Jul 07:36:22 07:44:31 57° 94° (E) 07:51:49 436.750
PHONESAT 2.4 01 Jul 07:41:12 07:44:10 46° 176° (S) 07:47:07 2401.200-2431.200
NOAA 15 01 Jul 07:48:00 07:52:55 41° 292° (WNW) 07:57:48 137.62
LilacSat-2 01 Jul 07:50:58 07:54:29 33° 289° (WNW) 07:58:00 437.200
STRAND 1 01 Jul 07:55:46 08:00:32 38° 262° (W) 08:05:22 437.568
BRITE-PL 01 Jul 08:02:38 08:05:49 22° 293° (WNW) 08:09:01 437.365/2234.400
CINEMA 3 01 Jul 08:03:11 08:07:03 26° 95° (E) 08:11:01 145.822/145.860
CANX-2 01 Jul 08:08:27 08:12:04 26° 94° (E) 08:15:39 2200.000
GOMX 1 01 Jul 08:20:50 08:24:33 31° 290° (WNW) 08:28:24 467.674
SEEDS 01 Jul 08:26:31 08:30:04 25° 95° (E) 08:33:35 437.485
CUTE 1.7 + AOD 2 01 Jul 08:27:36 08:31:35 36° 97° (E) 08:35:32 437.475
CUSAT 1 01 Jul 08:31:18 08:37:57 34° 287° (WNW) 08:43:33 437.405
HO-68 01 Jul 08:33:59 08:40:58 49° 100° (E) 08:47:52 435.675
Cubesat XI-IV 01 Jul 08:36:14 08:40:26 24° 297° (WNW) 08:44:37 437.490
PRISM 01 Jul 08:48:02 08:52:08 58° 258° (WSW) 08:56:14 437.425
TIGRISAT 01 Jul 08:51:57 08:52:48 10° 59° (ENE) 08:53:40 435.000
NOAA 18 01 Jul 08:54:54 08:58:28 18° 302° (WNW) 09:02:01 137.9125
UNISAT 6 01 Jul 08:56:54 08:58:50 13° 60° (ENE) 09:00:49 437.425
AAUSAT CUBESAT 2 01 Jul 08:57:05 09:00:49 31° 96° (E) 09:04:29 437.432
M-CUBED/EXP-1 PRIME 01 Jul 09:01:36 09:03:38 13° 98° (E) 09:05:44 437.505
DOVE 4 01 Jul 09:06:29 09:09:59 24° 292° (WNW) 09:13:37 437.250
ISS 01 Jul 09:10:17 09:13:25 41° 336° (NNW) 09:16:33 145.825
CUTE-I 01 Jul 09:11:09 09:13:26 13° 304° (NW) 09:15:44 437.470
PCSat 01 Jul 09:15:13 09:19:09 20° 41° (NE) 09:23:05 145.827
CUBEBUG 2 01 Jul 09:16:59 09:21:29 46° 99° (E) 09:26:01 437.445
PHONESAT 2.4 01 Jul 09:17:40 09:20:32 35° 193° (SSW) 09:23:22 2401.200-2431.200
DANDE 01 Jul 09:20:09 09:27:35 35° 290° (WNW) 09:34:17 436.750
ZACube-1 01 Jul 09:30:37 09:34:39 30° 95° (E) 09:38:40 437.345
COMPASS 1 01 Jul 09:33:51 09:38:03 80° 286° (WNW) 09:42:12 437.405
ANTELSAT 01 Jul 09:34:25 09:38:10 29° 68° (ENE) 09:42:02 437.575/2403.000
Oscar 11 01 Jul 09:34:46 09:38:44 33° 97° (E) 09:42:38 145.826/435.025
CINEMA 3 01 Jul 09:40:03 09:44:13 35° 290° (WNW) 09:48:32 145.822/145.860
CANX-2 01 Jul 09:44:11 09:47:54 29° 291° (WNW) 09:51:34 2200.000
FUNcube-1 01 Jul 09:46:19 09:50:38 40° 98° (E) 09:54:57 145.935
AUBIESAT-1 01 Jul 09:52:34 09:56:22 39° 105° (ESE) 10:00:24 437.475
UWE-3 01 Jul 09:58:01 10:02:40 85° 103° (ESE) 10:07:20 435.000/436.395/437.385
BEESAT 3 01 Jul 09:59:02 10:02:36 31° 48° (NE) 10:06:09 437.485
RS-15 01 Jul 10:00:32 10:09:04 25° 100° (E) 10:17:52 29.354- 29.394
SEEDS 01 Jul 10:02:05 10:05:45 29° 291° (WNW) 10:09:23 437.485
CUTE 1.7 + AOD 2 01 Jul 10:03:57 10:07:12 21° 294° (WNW) 10:10:26 437.475
NANOSAT C BR1 01 Jul 10:07:48 10:09:02 11° 60° (ENE) 10:10:18 145.865
QB50P1 01 Jul 10:11:47 10:13:45 13° 61° (ENE) 10:15:42 145.935-145.965
POPSAT HIP 1 01 Jul 10:15:04 10:17:14 14° 62° (ENE) 10:19:24 437.405
HUMSAT D 01 Jul 10:18:03 10:21:24 22° 93° (E) 10:24:43 437.325/437.525
DELFI C3 01 Jul 10:18:49 10:22:39 44° 99° (E) 10:26:26 145.870
HO-68 01 Jul 10:22:03 10:28:28 36° 299° (WNW) 10:34:52 435.675
TIGRISAT 01 Jul 10:24:26 10:28:45 87° 262° (W) 10:33:12 435.000
JAS-2 01 Jul 10:24:55 10:26:58 11° 52° (NE) 10:28:57 435.910
DUCHIFAT 1 01 Jul 10:25:23 10:27:57 16° 63° (ENE) 10:30:32 145.980
QB50P2 01 Jul 10:27:09 10:30:12 20° 65° (ENE) 10:33:16 145.880/145.840
POLYITAN 1 01 Jul 10:29:45 10:32:49 20° 65° (ENE) 10:35:55 437.675
UNISAT 6 01 Jul 10:30:38 10:34:56 71° 257° (WSW) 10:39:24 437.425
AAUSAT CUBESAT 2 01 Jul 10:32:49 10:36:09 24° 293° (WNW) 10:39:28 437.432
M-CUBED/EXP-1 PRIME 01 Jul 10:34:30 10:38:23 57° 291° (WNW) 10:42:33 437.505
BEESAT 2 01 Jul 10:42:44 10:46:37 47° 51° (NE) 10:50:28 435.950
ISS 01 Jul 10:47:59 10:50:28 19° 355° (N) 10:52:57 145.825
YUBILEINY 01 Jul 10:49:33 10:53:24 14° 73° (ENE) 10:57:15 435.215
CUBEBUG 2 01 Jul 10:54:22 10:57:47 21° 295° (WNW) 11:01:14 437.445
PHONESAT 2.4 01 Jul 10:55:14 10:56:37 12° 208° (SSW) 10:58:00 2401.200-2431.200
PCSat 01 Jul 10:57:47 11:03:15 82° 240° (WSW) 11:08:39 145.827
Cosmos 2491 01 Jul 10:58:38 11:06:56 45° 73° (ENE) 11:15:08 435.465 / 435.565
ESTCUBE 1 01 Jul 10:59:25 11:00:21 11° 88° (E) 11:01:17 437.505/2401.250
ZACube-1 01 Jul 11:06:54 11:10:51 29° 292° (WNW) 11:14:49 437.345
BUGSAT 1 01 Jul 11:08:09 11:11:06 20° 66° (ENE) 11:14:04 437.445
Oscar 11 01 Jul 11:11:11 11:14:42 24° 293° (WNW) 11:18:12 145.826/435.025
ANTELSAT 01 Jul 11:11:11 11:14:52 27° 265° (W) 11:18:38 437.575/2403.000
FUNcube-1 01 Jul 11:23:06 11:26:37 22° 294° (WNW) 11:30:08 145.935
AUBIESAT-1 01 Jul 11:27:41 11:30:38 20° 298° (WNW) 11:33:44 437.475
CUBEBUG 1 01 Jul 11:28:28 11:30:54 15° 91° (E) 11:33:19 437.445
UWE-3 01 Jul 11:36:44 11:38:27 12° 300° (WNW) 11:40:11 435.000/436.395/437.385
BEESAT 3 01 Jul 11:36:50 11:40:11 26° 245° (WSW) 11:43:30 437.485
NANOSAT C BR1 01 Jul 11:40:00 11:44:10 76° 258° (WSW) 11:48:23 145.865
O/OREOS (USA 219) 01 Jul 11:41:00 11:45:20 47° 62° (ENE) 11:49:41 437.305
VELOX 1 01 Jul 11:44:06 11:47:19 20° 93° (E) 11:50:31 145.980
QB50P1 01 Jul 11:44:51 11:49:00 63° 259° (WSW) 11:53:11 145.935-145.965
50 SAT 01 Jul 11:45:33 11:48:18 20° 94° (E) 11:51:01 437.505
POPSAT HIP 1 01 Jul 11:48:24 11:52:31 59° 259° (WSW) 11:56:42 437.405
AIST 2 01 Jul 11:50:49 11:53:48 19° 41° (NE) 11:56:46 435.215
HUMSAT D 01 Jul 11:53:09 11:57:07 35° 290° (WNW) 12:01:02 437.325/437.525
DELFI C3 01 Jul 11:54:41 11:57:10 16° 296° (WNW) 11:59:36 145.870
Cosmos 2504 01 Jul 11:58:58 12:00:43 11° 70° (ENE) 12:02:29 435.465 / 435.565
DUCHIFAT 1 01 Jul 11:59:14 12:03:16 48° 260° (W) 12:07:20 145.980
Oscar 19 01 Jul 12:01:48 12:05:03 17° 60° (ENE) 12:08:18 437.125/150
QB50P2 01 Jul 12:01:49 12:05:45 38° 262° (W) 12:09:43 145.880/145.840
JAS-2 01 Jul 12:03:32 12:10:48 56° 70° (ENE) 12:17:23 435.910
POLYITAN 1 01 Jul 12:04:29 12:08:23 37° 262° (W) 12:12:20 437.675
SPROUT 01 Jul 12:04:35 12:06:59 15° 91° (E) 12:09:21 437.525
RS-15 01 Jul 12:08:20 12:19:49 89° 310° (NW) 12:31:59 29.354- 29.394
UKube-1 01 Jul 12:08:21 12:11:42 22° 94° (E) 12:15:01 .
BEESAT 2 01 Jul 12:21:29 12:24:06 17° 249° (WSW) 12:26:43 435.950
AISAT 01 Jul 12:24:31 12:28:51 55° 101° (E) 12:33:09 437.250
ISS 01 Jul 12:24:52 12:27:40 25° 16° (NNE) 12:30:28 145.825
ESTCUBE 1 01 Jul 12:33:11 12:37:42 78° 286° (WNW) 12:42:11 437.505/2401.250
DX 1 01 Jul 12:33:31 12:37:45 50° 100° (E) 12:41:57 434.975-435.025
YUBILEINY 01 Jul 12:39:50 12:48:28 72° 94° (E) 12:57:13 435.215
BUGSAT 1 01 Jul 12:42:37 12:46:17 34° 263° (W) 12:49:57 437.445
Gurwin Techsat 1B 01 Jul 12:43:17 12:46:54 19° 61° (ENE) 12:50:32 435.225
PCSat 01 Jul 12:44:12 12:45:43 11° 259° (WSW) 12:47:15 145.827
Cosmos 2491 01 Jul 12:55:42 13:03:41 42° 273° (W) 13:11:40 435.465 / 435.565
CUBEBUG 1 01 Jul 13:03:18 13:07:30 53° 287° (WNW) 13:11:43 437.445
TISAT 1 01 Jul 13:12:44 13:15:52 20° 94° (E) 13:18:59 437.305
50 SAT 01 Jul 13:18:49 13:22:00 28° 291° (WNW) 13:25:10 437.505
VELOX 1 01 Jul 13:19:49 13:23:56 40° 290° (WNW) 13:28:03 145.980
O/OREOS (USA 219) 01 Jul 13:21:21 13:24:22 18° 259° (W) 13:27:22 437.305
AIST 2 01 Jul 13:28:32 13:32:39 60° 239° (WSW) 13:36:44 435.215
Oscar 19 01 Jul 13:38:42 13:43:49 68° 258° (WSW) 13:48:58 437.125/150
SPROUT 01 Jul 13:39:03 13:43:14 53° 287° (WNW) 13:47:24 437.525
AO-7 01 Jul 13:40:37 13:46:41 23° 50° (NE) 13:52:46 29.400- 29.500
UKube-1 01 Jul 13:43:54 13:47:50 35° 291° (WNW) 13:51:45 .
Cosmos 2504 01 Jul 13:44:01 13:52:02 60° 91° (E) 14:00:35 435.465 / 435.565
JAS-2 01 Jul 13:49:33 13:56:00 31° 265° (W) 14:02:00 435.910
SO-50 01 Jul 13:56:14 13:57:46 11° 107° (ESE) 13:59:17 436.795
BEESAT 01 Jul 13:59:11 14:01:20 13° 89° (E) 14:03:29 436.000
ISS 01 Jul 14:01:07 14:04:23 78° 215° (SW) 14:07:39 145.825
ITUPSAT 1 01 Jul 14:02:10 14:04:34 14° 90° (E) 14:06:57 437.325
AISAT 01 Jul 14:02:13 14:04:53 16° 298° (WNW) 14:07:33 437.250
ITAMSAT 1 01 Jul 14:08:31 14:13:18 38° 68° (ENE) 14:18:08 435.822/435.867
DX 1 01 Jul 14:10:46 14:13:33 17° 297° (WNW) 14:16:21 434.975-435.025
Gurwin Techsat 1B 01 Jul 14:21:04 14:26:20 65° 259° (WSW) 14:31:39 435.225
RS-15 01 Jul 14:23:31 14:34:05 37° 331° (NNW) 14:45:08 29.354- 29.394
YUBILEINY 01 Jul 14:39:03 14:46:07 27° 295° (WNW) 14:53:17 435.215
TISAT 1 01 Jul 14:47:45 14:51:38 37° 290° (WNW) 14:55:31 437.305
SWISSCUBE 01 Jul 15:09:54 15:14:43 72° 102° (ESE) 15:19:29 437.505
AO-7 01 Jul 15:30:01 15:38:22 88° 70° (ENE) 15:46:48 29.400- 29.500
SO-50 01 Jul 15:32:36 15:37:30 87° 123° (ESE) 15:42:24 436.795
KKS-1 01 Jul 15:32:43 15:34:57 14° 91° (E) 15:37:11 437.445
BEESAT 01 Jul 15:34:51 15:39:38 72° 287° (WNW) 15:44:24 436.000
ITUPSAT 1 01 Jul 15:38:05 15:42:53 69° 287° (WNW) 15:47:38 437.325
Cosmos 2504 01 Jul 15:38:42 15:45:58 32° 293° (WNW) 15:53:39 435.465 / 435.565
MOZHAYETS 4 01 Jul 15:45:51 15:49:07 19° 92° (E) 15:52:21
ITAMSAT 1 01 Jul 15:48:23 15:52:51 28° 265° (W) 15:57:21 435.822/435.867
HORYU 2 01 Jul 15:56:17 15:59:52 25° 66° (ENE) 16:03:30 437.375
STARS 01 Jul 15:56:22 15:58:04 12° 90° (E) 15:59:46 437.465
AIST 1 01 Jul 16:39:14 16:43:24 51° 94° (E) 16:47:34
RS-15 01 Jul 16:41:38 16:51:25 27° 6° (N) 17:01:23 29.354- 29.394
Cubesat XI-IV 01 Jul 16:41:53 16:44:38 14° 57° (ENE) 16:47:23 437.490
GONETS M04 01 Jul 16:45:48 16:51:17 19° 77° (ENE) 16:56:48
SWISSCUBE 01 Jul 16:49:18 16:51:55 15° 300° (WNW) 16:54:31 437.505
NOAA 18 01 Jul 17:01:30 17:05:47 24° 62° (ENE) 17:10:05 137.9125
LilacSat-2 01 Jul 17:02:01 17:03:24 12° 63° (ENE) 17:04:48 437.200
KKS-1 01 Jul 17:07:31 17:11:55 61° 287° (WNW) 17:16:18 437.445
CUTE-I 01 Jul 17:13:10 17:17:32 26° 64° (ENE) 17:21:55 437.470
SO-50 01 Jul 17:15:14 17:18:37 18° 323° (NW) 17:22:01 436.795
MOZHAYETS 4 01 Jul 17:22:04 17:26:31 47° 288° (WNW) 17:30:56
CUBESAT XI-V 01 Jul 17:22:08 17:25:45 22° 93° (E) 17:29:20 437.345
CUSAT 1 01 Jul 17:25:03 17:27:08 15° 65° (ENE) 17:28:59 437.405
AO-7 01 Jul 17:26:24 17:32:08 20° 270° (W) 17:37:57 29.400- 29.500
NOAA 15 01 Jul 17:29:34 17:34:37 48° 69° (ENE) 17:39:40 137.62
STARS 01 Jul 17:30:29 17:34:52 68° 287° (WNW) 17:39:16 437.465
HORYU 2 01 Jul 17:32:15 17:36:16 34° 263° (W) 17:40:21 437.375
BRITE-PL 01 Jul 17:35:12 17:39:54 47° 72° (ENE) 17:44:16 437.365/2234.400
GOMX 1 01 Jul 17:52:22 17:56:16 30° 70° (ENE) 18:00:01 467.674
Cosmos 2499 01 Jul 18:10:35 18:18:26 46° 87° (E) 18:26:41 435.465 / 435.565
DANDE 01 Jul 18:17:57 18:22:04 29° 67° (ENE) 18:25:17 436.750
Cubesat XI-IV 01 Jul 18:18:35 18:23:56 89° 257° (WSW) 18:29:21 437.490
AIST 1 01 Jul 18:18:52 18:21:20 15° 291° (WNW) 18:23:47
LilacSat-2 01 Jul 18:33:29 18:37:13 57° 260° (W) 18:41:00 437.200
DOVE 4 01 Jul 18:35:24 18:39:19 37° 71° (ENE) 18:43:11 437.250
GONETS M04 01 Jul 18:38:08 18:46:51 90° 277° (W) 18:55:36
NOAA 18 01 Jul 18:40:45 18:46:04 52° 259° (W) 18:51:28 137.9125
CUTE-I 01 Jul 18:52:13 18:57:19 45° 261° (W) 19:02:29 437.470
RS-15 01 Jul 18:56:21 19:08:06 47° 39° (NE) 19:19:48 29.354- 29.394
CUBESAT XI-V 01 Jul 18:58:59 19:03:16 38° 290° (WNW) 19:07:30 437.345
CANX-2 01 Jul 19:02:30 19:05:51 23° 66° (ENE) 19:09:13 2200.000
HO-68 01 Jul 19:03:49 19:10:24 41° 63° (ENE) 19:17:01 435.675
CINEMA 3 01 Jul 19:06:38 19:09:57 24° 67° (ENE) 19:13:20 145.822/145.860
CUSAT 1 01 Jul 19:06:46 19:09:13 19° 272° (W) 19:11:22 437.405
NOAA 15 01 Jul 19:10:28 19:14:37 23° 267° (W) 19:18:46 137.62
BRITE-PL 01 Jul 19:15:06 19:18:34 19° 267° (W) 19:21:52 437.365/2234.400
SEEDS 01 Jul 19:19:33 19:22:49 22° 66° (ENE) 19:26:05 437.485
CUTE 1.7 + AOD 2 01 Jul 19:21:19 19:25:04 30° 69° (ENE) 19:28:52 437.475
AO-85 01 Jul 19:27:10 19:29:07 12° 106° (ESE) 19:31:03 145.980
GOMX 1 01 Jul 19:30:39 19:34:23 25° 265° (W) 19:37:58 467.674
AAUSAT CUBESAT 2 01 Jul 19:48:32 19:51:57 25° 68° (ENE) 19:55:23 437.432
M-CUBED/EXP-1 PRIME 01 Jul 19:49:49 19:51:54 16° 60° (ENE) 19:54:01 437.505
DANDE 01 Jul 20:01:24 20:04:31 19° 277° (W) 20:07:06 436.750
Cubesat XI-IV 01 Jul 20:03:00 20:04:45 11° 273° (W) 20:06:30 437.490
Cosmos 2499 01 Jul 20:03:38 20:11:35 43° 288° (WNW) 20:19:57 435.465 / 435.565
STRAND 1 01 Jul 20:04:33 20:09:42 66° 102° (ESE) 20:14:48 437.568
DOVE 4 01 Jul 20:14:12 20:17:12 19° 267° (W) 20:20:09 437.250
CUBEBUG 2 01 Jul 20:16:22 20:20:19 41° 71° (ENE) 20:24:23 437.445
COMPASS 1 01 Jul 20:25:12 20:29:24 78° 76° (ENE) 20:33:39 437.405
ZACube-1 01 Jul 20:27:49 20:31:20 26° 67° (ENE) 20:34:55 437.345
PRISM 01 Jul 20:29:26 20:32:04 17° 93° (E) 20:34:41 437.425
Oscar 11 01 Jul 20:30:36 20:34:22 30° 68° (ENE) 20:38:10 145.826/435.025
CANX-2 01 Jul 20:37:35 20:41:31 35° 263° (W) 20:45:29 2200.000
GONETS M04 01 Jul 20:38:52 20:44:58 21° 299° (WNW) 20:51:06
AUBIESAT-1 01 Jul 20:40:26 20:43:40 55° 68° (ENE) 20:46:59 437.475
FUNcube-1 01 Jul 20:43:01 20:46:51 34° 69° (ENE) 20:50:48 145.935
CINEMA 3 01 Jul 20:43:22 20:47:00 29° 264° (W) 20:50:42 145.822/145.860
HO-68 01 Jul 20:51:24 20:58:04 42° 262° (W) 21:04:50 435.675
SEEDS 01 Jul 20:54:23 20:58:18 35° 263° (W) 21:02:15 437.485
UWE-3 01 Jul 20:56:01 21:00:13 77° 75° (ENE) 21:04:34 435.000/436.395/437.385
CUTE 1.7 + AOD 2 01 Jul 20:57:23 21:00:55 25° 266° (W) 21:04:29 437.475
AO-85 01 Jul 21:03:27 21:08:53 80° 122° (ESE) 21:14:07 145.980
DELFI C3 01 Jul 21:05:48 21:09:21 30° 70° (ENE) 21:12:55 145.870
RS-15 01 Jul 21:09:13 21:21:23 68° 244° (WSW) 21:33:25 29.354- 29.394
HUMSAT D 01 Jul 21:10:53 21:13:46 18° 64° (ENE) 21:16:40 437.325/437.525
M-CUBED/EXP-1 PRIME 01 Jul 21:23:25 21:26:17 29° 258° (WSW) 21:29:13 437.505
AAUSAT CUBESAT 2 01 Jul 21:23:37 21:27:19 30° 264° (W) 21:31:02 437.432
STRAND 1 01 Jul 21:44:59 21:48:20 18° 300° (WNW) 21:51:41 437.568
CUBEBUG 2 01 Jul 21:54:17 21:57:10 18° 269° (W) 22:00:07 437.445
ESTCUBE 1 01 Jul 21:59:43 22:01:47 13° 60° (ENE) 22:03:51 437.505/2401.250
PRISM 01 Jul 22:03:43 22:07:35 41° 289° (WNW) 22:11:24 437.425
ZACube-1 01 Jul 22:03:48 22:07:31 30° 265° (W) 22:11:20 437.345
Oscar 11 01 Jul 22:06:50 22:10:29 26° 265° (W) 22:14:10 145.826/435.025
TIGRISAT 01 Jul 22:15:24 22:18:44 19° 92° (E) 22:22:04 435.000
FUNcube-1 01 Jul 22:19:54 22:23:12 22° 267° (W) 22:26:34 145.935
UNISAT 6 01 Jul 22:21:27 22:25:12 23° 94° (E) 22:28:56 437.425
SO-50 01 Jul 22:23:35 22:26:54 19° 37° (NE) 22:30:09 436.795
50 SAT 01 Jul 22:25:51 22:27:24 12° 63° (ENE) 22:28:56 437.505
CUBEBUG 1 01 Jul 22:25:54 22:28:26 15° 63° (ENE) 22:30:59 437.445
DELFI C3 01 Jul 22:41:04 22:44:14 22° 266° (W) 22:47:25 145.870
VELOX 1 01 Jul 22:42:39 22:45:58 21° 65° (ENE) 22:49:17 145.980
HUMSAT D 01 Jul 22:45:04 22:49:03 43° 262° (W) 22:53:08 437.325/437.525
AO-85 01 Jul 22:45:52 22:49:56 21° 320° (NW) 22:53:52 145.980
YUBILEINY 01 Jul 22:48:43 22:56:50 38° 70° (ENE) 23:04:53 435.215
SPROUT 01 Jul 22:59:55 23:02:06 14° 62° (ENE) 23:04:17 437.525
ANTELSAT 01 Jul 23:00:30 23:05:08 57° 100° (E) 23:09:45 437.575/2403.000
UKube-1 01 Jul 23:04:07 23:07:28 22° 65° (ENE) 23:10:48 .
AISAT 01 Jul 23:22:45 23:27:03 56° 73° (ENE) 23:31:22 437.250
NANOSAT C BR1 01 Jul 23:24:20 23:26:57 16° 92° (E) 23:29:34 145.865
RS-15 01 Jul 23:25:02 23:31:23 16° 266° (W) 23:37:44 29.354- 29.394
QB50P1 01 Jul 23:29:08 23:32:11 19° 93° (E) 23:35:13 145.935-145.965
DX 1 01 Jul 23:29:55 23:34:06 50° 72° (ENE) 23:38:19 434.975-435.025
POPSAT HIP 1 01 Jul 23:32:36 23:35:47 20° 93° (E) 23:38:58 437.405
ESTCUBE 1 01 Jul 23:33:27 23:37:59 75° 257° (WSW) 23:42:32 437.505/2401.250
Cosmos 2504 01 Jul 23:35:48 23:42:53 26° 63° (ENE) 23:49:43 435.465 / 435.565
DUCHIFAT 1 01 Jul 23:42:28 23:45:53 23° 94° (E) 23:49:18 145.980
QB50P2 01 Jul 23:45:27 23:49:13 29° 96° (E) 23:52:58 145.880/145.840
POLYITAN 1 01 Jul 23:48:03 23:51:51 30° 96° (E) 23:55:39 437.675
TIGRISAT 01 Jul 23:51:09 23:55:38 47° 289° (WNW) 00:00:09 435.000
50 SAT 01 Jul 23:56:58 00:00:37 53° 260° (W) 00:04:18 437.505
UNISAT 6 01 Jul 23:57:40 00:02:01 39° 290° (WNW) 00:06:23 437.425
CUBEBUG 1 02 Jul 00:00:01 00:04:18 56° 260° (W) 00:08:34 437.445
Cosmos 2491 02 Jul 00:01:09 00:09:26 49° 89° (E) 00:17:42 435.465 / 435.565
SO-50 02 Jul 00:03:17 00:07:59 78° 237° (WSW) 00:12:29 436.795
TISAT 1 02 Jul 00:05:57 00:08:47 18° 64° (ENE) 00:11:38 437.305
VELOX 1 02 Jul 00:18:03 00:22:12 39° 262° (W) 00:26:20 145.980
BUGSAT 1 02 Jul 00:22:54 00:26:30 28° 96° (E) 00:30:07 437.445
SPROUT 02 Jul 00:33:22 00:37:33 60° 259° (W) 00:41:47 437.525
ANTELSAT 02 Jul 00:38:20 00:41:24 18° 297° (WNW) 00:44:28 437.575/2403.000
UKube-1 02 Jul 00:39:20 00:43:18 36° 262° (W) 00:47:18 .
SWISSCUBE 02 Jul 00:43:02 00:44:59 12° 58° (ENE) 00:46:55 437.505
YUBILEINY 02 Jul 00:45:26 00:53:51 51° 271° (W) 01:02:16 435.215
JAS-2 02 Jul 00:57:42 01:02:45 36° 96° (E) 01:07:30 435.910
NANOSAT C BR1 02 Jul 00:58:51 01:02:56 47° 288° (WNW) 01:07:01 145.865
AISAT 02 Jul 01:01:31 01:03:54 14° 269° (W) 01:06:16 437.250
QB50P1 02 Jul 01:04:07 01:08:07 40° 289° (WNW) 01:12:06 145.935-145.965
BEESAT 02 Jul 01:06:19 01:09:35 19° 62° (ENE) 01:12:52 436.000
POPSAT HIP 1 02 Jul 01:07:44 01:11:41 37° 290° (WNW) 01:15:38 437.405
DX 1 02 Jul 01:07:57 01:10:35 16° 268° (W) 01:13:13 434.975-435.025
ITUPSAT 1 02 Jul 01:09:42 01:13:07 20° 63° (ENE) 01:16:32 437.325
DUCHIFAT 1 02 Jul 01:17:50 01:21:37 32° 291° (WNW) 01:25:24 145.980
QB50P2 02 Jul 01:21:22 01:24:55 26° 293° (WNW) 01:28:28 145.880/145.840
POLYITAN 1 02 Jul 01:24:00 01:27:33 25° 293° (WNW) 01:31:05 437.675
BEESAT 3 02 Jul 01:27:56 01:31:30 35° 117° (ESE) 01:35:07 437.485
Cosmos 2504 02 Jul 01:28:23 01:37:16 78° 265° (W) 01:45:42 435.465 / 435.565
TISAT 1 02 Jul 01:40:11 01:44:08 42° 261° (W) 01:48:07 437.305
PCSat 02 Jul 01:40:12 01:45:36 74° 118° (ESE) 01:51:02 145.827
Oscar 19 02 Jul 01:49:09 01:53:56 38° 98° (E) 01:58:41 437.125/150
O/OREOS (USA 219) 02 Jul 01:54:24 01:58:39 43° 107° (ESE) 02:02:54 437.305
BUGSAT 1 02 Jul 01:58:24 02:01:47 25° 292° (WNW) 02:05:11 437.445
Cosmos 2491 02 Jul 01:58:24 02:06:26 39° 289° (WNW) 02:14:29 435.465 / 435.565
BEESAT 2 02 Jul 02:12:56 02:16:50 59° 121° (ESE) 02:20:46 435.950
SWISSCUBE 02 Jul 02:17:15 02:22:03 87° 253° (WSW) 02:26:54 437.505
ITAMSAT 1 02 Jul 02:22:16 02:24:05 12° 88° (E) 02:25:53 435.822/435.867
KKS-1 02 Jul 02:32:03 02:34:40 16° 62° (ENE) 02:37:18 437.445
Gurwin Techsat 1B 02 Jul 02:36:05 02:41:13 46° 99° (E) 02:46:18 435.225
BEESAT 02 Jul 02:42:16 02:46:56 55° 259° (W) 02:51:41 436.000
JAS-2 02 Jul 02:43:00 02:47:46 30° 296° (WNW) 02:52:16 435.910
ITUPSAT 1 02 Jul 02:45:53 02:50:33 52° 260° (W) 02:55:17 437.325
AIST 1 02 Jul 02:46:08 02:48:32 15° 68° (ENE) 02:50:57
MOZHAYETS 4 02 Jul 02:48:52 02:52:20 21° 65° (ENE) 02:55:50
STARS 02 Jul 02:54:19 02:56:28 14° 61° (ENE) 02:58:37 437.465
BEESAT 3 02 Jul 03:05:59 03:09:16 25° 315° (NW) 03:12:34 437.485
